M I D A S
Marine Information and Data Acquisition System
Tripno 2274 of the Zeeleeuw from 2012-03-09 08:22:30 to 2012-03-09 14:03:56
Back to CruiseResearch ActivitiesStationsMapUnderway DataData graphs

EquipmentUnitsComments
TimeDGPSUTC
LatitudeDGPSDM.mWGS84
LongitudeDGPSDM.mWGS84
SpeedMeteo Stationm/sRelative wind speed
DirectionMeteo StationdegRelative wind direction
TemperatureMeteo Stationdeg CelciusAir temperature
PressureMeteo StationPaAtmospheric pressure
HumidityMeteo Station%Relative humidity
Missing or incorrect values are displayed as -999
Metereological data collected by the RV Zeeleeuw from 2012-03-09 07:51:19 to 2012-03-09 14:16:54
                                                                                    Next 1000 lines
Time Latitude Longitude Speed Direction Temperature Pressure Humidity
2012-03-09 07:51:29 51°13.64 2°56.014 3.4 2 4.2 103570 51
2012-03-09 07:51:34 51°13.639 2°56.013 2.6 7 4.2 103570 52
2012-03-09 07:51:39 51°13.638 2°56.013 2.1 3 4.2 103570 52
2012-03-09 07:51:44 51°13.638 2°56.013 2.3 18 4.2 103570 50
2012-03-09 07:51:49 51°13.637 2°56.013 1.6 12 4.2 103570 50
2012-03-09 07:51:54 51°13.637 2°56.014 2.4 5 4.2 103570 50
2012-03-09 07:51:59 51°13.638 2°56.014 2 2 4.2 103570 50
2012-03-09 07:52:04 51°13.638 2°56.014 3.3 1 4.2 103570 52
2012-03-09 07:52:09 51°13.638 2°56.014 2.7 359 4.2 103570 52
2012-03-09 07:52:14 51°13.637 2°56.014 2.6 2 4.2 103580 52
2012-03-09 07:52:19 51°13.638 2°56.014 1.7 359 4.2 103580 52
2012-03-09 07:52:24 51°13.638 2°56.015 1.2 6 4.2 103580 52
2012-03-09 07:52:29 51°13.638 2°56.015 2.9 5 4.2 103580 52
2012-03-09 07:52:34 51°13.637 2°56.015 4.5 17 4.2 103580 50
2012-03-09 07:52:39 51°13.637 2°56.015 3.3 23 4.2 103580 50
2012-03-09 07:52:43 51°13.637 2°56.016 3.6 21 4.2 103580 52
2012-03-09 07:52:49 51°13.637 2°56.016 4.1 13 4.2 103580 52
2012-03-09 07:52:54 51°13.637 2°56.016 3.9 13 4.2 103580 52
2012-03-09 07:52:59 51°13.637 2°56.016 2.6 26 4.2 103580 52
2012-03-09 07:53:04 51°13.637 2°56.017 1.9 9 4.2 103580 52
2012-03-09 07:53:08 51°13.637 2°56.017 2.1 22 4.2 103580 52
2012-03-09 07:53:14 51°13.636 2°56.017 2.2 26 4.2 103580 49
2012-03-09 07:53:19 51°13.637 2°56.018 2.2 26 4.2 103580 49
2012-03-09 07:53:24 51°13.636 2°56.018 2.3 16 4.2 103580 52
2012-03-09 07:53:29 51°13.637 2°56.018 1.9 12 4.2 103580 52
2012-03-09 07:53:33 51°13.636 2°56.018 2.2 7 4.2 103580 52
2012-03-09 07:53:39 51°13.636 2°56.018 2 15 4.2 103580 52
2012-03-09 07:53:44 51°13.637 2°56.018 1.5 19 4.2 103580 50
2012-03-09 07:53:49 51°13.637 2°56.018 0.7 5 4.2 103580 50
2012-03-09 07:53:53 51°13.637 2°56.018 3.1 355 4.2 103580 52
2012-03-09 07:53:59 51°13.637 2°56.019 2.2 10 4.2 103580 52
2012-03-09 07:54:04 51°13.637 2°56.018 2.1 16 4.2 103580 51
2012-03-09 07:54:08 51°13.636 2°56.019 2.1 12 4.2 103580 51
2012-03-09 07:54:13 51°13.636 2°56.019 1.8 16 4.2 103580 50
2012-03-09 07:54:19 51°13.636 2°56.019 3 23 4.2 103580 50
2012-03-09 07:54:24 51°13.635 2°56.019 3.8 12 4.2 103580 51
2012-03-09 07:54:29 51°13.635 2°56.019 1.9 15 4.2 103580 51
2012-03-09 07:54:34 51°13.635 2°56.019 1.9 23 4.2 103580 51
2012-03-09 07:54:38 51°13.635 2°56.02 1.5 17 4.2 103580 51
2012-03-09 07:54:44 51°13.635 2°56.019 0.6 7 4.2 103580 52
2012-03-09 07:54:49 51°13.636 2°56.019 1.7 -999 4.2 103580 52
2012-03-09 07:54:54 51°13.635 2°56.019 1.9 354 4.2 103580 53
2012-03-09 07:54:59 51°13.636 2°56.019 2.1 4 4.2 103580 53
2012-03-09 07:55:04 51°13.636 2°56.018 1.8 1 4.2 103580 51
2012-03-09 07:55:09 51°13.636 2°56.018 3.1 4 4.2 103580 51
2012-03-09 07:55:14 51°13.637 2°56.019 2.9 358 4.2 103580 51
2012-03-09 07:55:19 51°13.637 2°56.018 2.6 356 4.2 103580 51
2012-03-09 07:55:24 51°13.637 2°56.018 1.2 352 4.3 103580 50
2012-03-09 07:55:29 51°13.636 2°56.018 2.8 359 4.3 103580 50
2012-03-09 07:55:34 51°13.637 2°56.018 4.1 358 4.2 103580 52
2012-03-09 07:55:39 51°13.637 2°56.018 2.4 3 4.2 103580 52
2012-03-09 07:55:44 51°13.636 2°56.017 3 10 4.3 103580 50
2012-03-09 07:55:49 51°13.637 2°56.018 3.5 11 4.3 103580 50
2012-03-09 07:55:54 51°13.637 2°56.017 3.8 13 4.3 103580 50
2012-03-09 07:55:59 51°13.637 2°56.017 3.6 18 4.3 103580 50
2012-03-09 07:56:04 51°13.637 2°56.017 3.2 16 4.2 103580 50
2012-03-09 07:56:08 51°13.637 2°56.017 3.7 20 4.2 103580 50
2012-03-09 07:56:14 51°13.638 2°56.018 3.2 18 4.3 103580 52
2012-03-09 07:56:19 51°13.638 2°56.017 1.7 14 4.3 103580 52
2012-03-09 07:56:24 51°13.638 2°56.016 1.9 18 4.3 103580 50
2012-03-09 07:56:29 51°13.639 2°56.016 2 10 4.3 103580 50
2012-03-09 07:56:34 51°13.638 2°56.016 2 2 4.3 103580 52
2012-03-09 07:56:39 51°13.638 2°56.016 1.5 6 4.3 103580 52
2012-03-09 07:56:44 51°13.639 2°56.017 0.7 3 4.3 103570 51
2012-03-09 07:56:49 51°13.638 2°56.017 0.2 4 4.3 103570 51
2012-03-09 07:56:54 51°13.638 2°56.017 0.1 29 4.3 103580 51
2012-03-09 07:56:59 51°13.638 2°56.017 0.5 34 4.3 103580 51
2012-03-09 07:57:04 51°13.638 2°56.016 0.2 9 4.3 103580 52
2012-03-09 07:57:09 51°13.639 2°56.016 0.1 30 4.3 103580 52
2012-03-09 07:57:14 51°13.64 2°56.016 0.9 24 4.3 103580 52
2012-03-09 07:57:19 51°13.64 2°56.016 2.8 14 4.3 103580 52
2012-03-09 07:57:24 51°13.64 2°56.015 2.1 23 4.3 103580 51
2012-03-09 07:57:29 51°13.64 2°56.015 2.1 26 4.3 103580 51
2012-03-09 07:57:34 51°13.64 2°56.016 2.1 16 4.3 103580 51
2012-03-09 07:57:39 51°13.641 2°56.016 2 5 4.3 103580 51
2012-03-09 07:57:44 51°13.641 2°56.016 2 5 4.3 103580 52
2012-03-09 07:57:49 51°13.641 2°56.016 1.7 6 4.3 103580 52
2012-03-09 07:57:54 51°13.641 2°56.016 2.2 6 4.3 103580 51
2012-03-09 07:57:59 51°13.641 2°56.015 2 357 4.3 103580 51
2012-03-09 07:58:04 51°13.641 2°56.016 2.9 356 4.3 103580 52
2012-03-09 07:58:09 51°13.64 2°56.015 2.1 6 4.3 103580 52
2012-03-09 07:58:13 51°13.641 2°56.016 2 3 4.3 103580 52
2012-03-09 07:58:19 51°13.64 2°56.015 2.7 6 4.3 103580 52
2012-03-09 07:58:24 51°13.64 2°56.016 3.9 6 4.3 103580 53
2012-03-09 07:58:29 51°13.64 2°56.016 4.2 13 4.3 103580 53
2012-03-09 07:58:34 51°13.639 2°56.016 3.9 17 4.3 103580 50
2012-03-09 07:58:38 51°13.639 2°56.017 4.2 9 4.3 103580 50
2012-03-09 07:58:43 51°13.638 2°56.016 4.4 3 4.3 103580 51
2012-03-09 07:58:49 51°13.638 2°56.017 2.6 8 4.3 103580 51
2012-03-09 07:58:54 51°13.638 2°56.017 3.4 3 4.3 103580 52
2012-03-09 07:58:59 51°13.638 2°56.018 3.5 3 4.3 103580 52
2012-03-09 07:59:04 51°13.637 2°56.018 4.1 11 4.3 103580 52
2012-03-09 07:59:09 51°13.637 2°56.018 3.1 11 4.3 103580 52
2012-03-09 07:59:14 51°13.637 2°56.018 2.2 10 4.3 103580 51
2012-03-09 07:59:19 51°13.638 2°56.018 2 7 4.3 103580 51
2012-03-09 07:59:24 51°13.638 2°56.018 1.7 2 4.3 103580 51
2012-03-09 07:59:29 51°13.638 2°56.018 1.7 18 4.3 103580 51
2012-03-09 07:59:34 51°13.638 2°56.018 0.6 14 4.3 103580 52
2012-03-09 07:59:39 51°13.638 2°56.018 0.8 12 4.3 103580 52
2012-03-09 07:59:44 51°13.638 2°56.018 0.8 14 4.3 103570 51
2012-03-09 07:59:48 51°13.637 2°56.018 1.1 8 4.3 103570 51
2012-03-09 07:59:54 51°13.637 2°56.018 1.1 5 4.3 103580 51
2012-03-09 07:59:59 51°13.637 2°56.018 2.2 9 4.3 103580 51
2012-03-09 08:00:04 51°13.637 2°56.018 2.1 8 4.3 103580 51
2012-03-09 08:00:09 51°13.637 2°56.018 2 16 4.3 103580 51
2012-03-09 08:00:14 51°13.637 2°56.017 1.5 6 4.3 103580 52
2012-03-09 08:00:19 51°13.637 2°56.017 0.3 20 4.3 103580 52
2012-03-09 08:00:24 51°13.638 2°56.018 0.1 14 4.3 103580 51
2012-03-09 08:00:29 51°13.638 2°56.018 1.4 10 4.3 103580 51
2012-03-09 08:00:34 51°13.638 2°56.018 1.3 9 4.3 103580 51
2012-03-09 08:00:39 51°13.638 2°56.018 3.2 13 4.3 103580 51
2012-03-09 08:00:44 51°13.638 2°56.018 1.8 11 4.3 103580 51
2012-03-09 08:00:48 51°13.638 2°56.018 2.9 7 4.3 103580 51
2012-03-09 08:00:54 51°13.638 2°56.017 2.2 8 4.3 103580 52
2012-03-09 08:00:59 51°13.638 2°56.017 3.4 12 4.3 103580 52
2012-03-09 08:01:04 51°13.638 2°56.017 4 18 4.3 103580 53
2012-03-09 08:01:09 51°13.638 2°56.017 3.7 27 4.3 103580 53
2012-03-09 08:01:14 51°13.638 2°56.017 3 36 4.3 103580 51
2012-03-09 08:01:19 51°13.638 2°56.017 1.6 17 4.3 103580 51
2012-03-09 08:01:24 51°13.637 2°56.017 2.2 12 4.3 103580 51
2012-03-09 08:01:29 51°13.638 2°56.018 1.8 6 4.3 103580 51
2012-03-09 08:01:34 51°13.638 2°56.018 3.1 15 4.3 103580 50
2012-03-09 08:01:39 51°13.638 2°56.018 4.3 6 4.3 103580 50
2012-03-09 08:01:44 51°13.638 2°56.018 4.1 3 4.3 103580 50
2012-03-09 08:01:49 51°13.638 2°56.018 3.2 7 4.3 103580 50
2012-03-09 08:01:54 51°13.638 2°56.018 4.4 16 4.3 103580 50
2012-03-09 08:01:59 51°13.638 2°56.018 4.3 13 4.3 103580 50
2012-03-09 08:02:03 51°13.638 2°56.018 3 10 4.3 103580 51
2012-03-09 08:02:09 51°13.638 2°56.017 3.3 15 4.3 103580 51
2012-03-09 08:02:14 51°13.638 2°56.017 1.8 13 4.3 103580 51
2012-03-09 08:02:19 51°13.638 2°56.017 2.2 352 4.3 103580 51
2012-03-09 08:02:24 51°13.639 2°56.017 1.5 2 4.3 103580 52
2012-03-09 08:02:29 51°13.639 2°56.017 3.3 349 4.3 103580 52
2012-03-09 08:02:34 51°13.639 2°56.017 0.8 345 4.3 103580 51
2012-03-09 08:02:39 51°13.638 2°56.016 1.3 349 4.3 103580 51
2012-03-09 08:02:43 51°13.638 2°56.016 0.5 358 4.3 103580 53
2012-03-09 08:02:49 51°13.638 2°56.016 0.2 6 4.3 103580 53
2012-03-09 08:02:54 51°13.638 2°56.016 0.1 7 4.4 103580 50
2012-03-09 08:02:59 51°13.638 2°56.016 -999 16 4.4 103580 50
2012-03-09 08:03:04 51°13.638 2°56.016 -999 -999 4.3 103580 51
2012-03-09 08:03:08 51°13.638 2°56.016 1.3 359 4.3 103580 51
2012-03-09 08:03:14 51°13.638 2°56.017 2.1 7 4.4 103580 51
2012-03-09 08:03:19 51°13.638 2°56.016 2.6 8 4.4 103580 51
2012-03-09 08:03:24 51°13.638 2°56.017 1.5 16 4.4 103580 51
2012-03-09 08:03:29 51°13.638 2°56.017 2.9 24 4.4 103580 51
2012-03-09 08:03:34 51°13.638 2°56.017 0.8 10 4.4 103580 51
2012-03-09 08:03:39 51°13.638 2°56.017 1.4 12 4.4 103580 51
2012-03-09 08:03:44 51°13.638 2°56.017 2.5 -999 4.4 103580 51
2012-03-09 08:03:49 51°13.638 2°56.017 2.6 2 4.4 103580 51
2012-03-09 08:03:54 51°13.638 2°56.017 3.3 355 4.4 103580 49
2012-03-09 08:03:59 51°13.638 2°56.017 2.5 357 4.4 103580 49
2012-03-09 08:04:04 51°13.638 2°56.017 3 357 4.4 103580 51
2012-03-09 08:04:09 51°13.638 2°56.017 1.5 6 4.4 103580 51
2012-03-09 08:04:14 51°13.638 2°56.017 2.1 12 4.4 103580 51
2012-03-09 08:04:19 51°13.638 2°56.017 2.2 17 4.4 103580 51
2012-03-09 08:04:24 51°13.638 2°56.017 2.5 357 4.4 103580 53
2012-03-09 08:04:29 51°13.638 2°56.017 2.2 5 4.4 103580 53
2012-03-09 08:04:34 51°13.637 2°56.016 3.3 7 4.4 103580 52
2012-03-09 08:04:39 51°13.637 2°56.017 3.1 354 4.4 103580 52
2012-03-09 08:04:44 51°13.637 2°56.018 2.8 3 4.4 103580 52
2012-03-09 08:04:48 51°13.637 2°56.018 2.6 358 4.4 103580 52
2012-03-09 08:04:53 51°13.637 2°56.018 2.9 359 4.4 103580 53
2012-03-09 08:04:59 51°13.637 2°56.017 1.8 353 4.4 103580 53
2012-03-09 08:05:04 51°13.637 2°56.017 2.1 359 4.4 103580 52
2012-03-09 08:05:09 51°13.638 2°56.018 2.2 4 4.4 103580 52
2012-03-09 08:05:14 51°13.637 2°56.017 2.7 4 4.4 103580 51
2012-03-09 08:05:19 51°13.637 2°56.017 2.4 354 4.4 103580 51
2012-03-09 08:05:24 51°13.637 2°56.017 1 6 4.4 103580 52
2012-03-09 08:05:29 51°13.637 2°56.017 0.7 5 4.4 103580 52
2012-03-09 08:05:34 51°13.637 2°56.018 2.3 1 4.4 103580 53
2012-03-09 08:05:39 51°13.637 2°56.018 2.5 11 4.4 103580 53
2012-03-09 08:05:44 51°13.637 2°56.018 2.6 17 4.4 103580 50
2012-03-09 08:05:49 51°13.636 2°56.018 3.5 13 4.4 103580 50
2012-03-09 08:05:53 51°13.637 2°56.018 3.9 7 4.4 103580 51
2012-03-09 08:05:59 51°13.636 2°56.017 2.8 9 4.4 103580 51
2012-03-09 08:06:04 51°13.636 2°56.017 2 1 4.4 103580 52
2012-03-09 08:06:09 51°13.636 2°56.017 2.7 9 4.4 103580 52
2012-03-09 08:06:14 51°13.636 2°56.016 2.5 9 4.4 103590 52
2012-03-09 08:06:19 51°13.636 2°56.016 2.6 4 4.4 103590 52
2012-03-09 08:06:24 51°13.636 2°56.016 2.2 8 4.4 103580 52
2012-03-09 08:06:29 51°13.636 2°56.017 2.9 -999 4.4 103580 52
2012-03-09 08:06:34 51°13.636 2°56.017 2.3 8 4.4 103580 50
2012-03-09 08:06:39 51°13.636 2°56.017 3.1 7 4.4 103580 50
2012-03-09 08:06:44 51°13.636 2°56.017 2.8 5 4.4 103580 51
2012-03-09 08:06:48 51°13.636 2°56.017 3.8 356 4.4 103580 51
2012-03-09 08:06:53 51°13.636 2°56.017 3.4 2 4.4 103590 53
2012-03-09 08:06:59 51°13.636 2°56.017 3 7 4.4 103590 53
2012-03-09 08:07:04 51°13.637 2°56.017 3 10 4.4 103580 53
2012-03-09 08:07:09 51°13.637 2°56.017 3.3 352 4.4 103580 53
2012-03-09 08:07:14 51°13.636 2°56.017 3.4 12 4.4 103580 51
2012-03-09 08:07:19 51°13.636 2°56.017 3.3 358 4.4 103580 51
2012-03-09 08:07:24 51°13.637 2°56.018 2.4 3 4.4 103580 53
2012-03-09 08:07:29 51°13.637 2°56.018 2.4 8 4.4 103580 53
2012-03-09 08:07:34 51°13.637 2°56.018 2 10 4.5 103580 50
2012-03-09 08:07:39 51°13.637 2°56.018 1.9 3 4.5 103580 50
2012-03-09 08:07:44 51°13.637 2°56.018 1.7 8 4.5 103590 52
2012-03-09 08:07:49 51°13.637 2°56.017 1.7 7 4.5 103590 52
2012-03-09 08:07:54 51°13.637 2°56.017 1.6 4 4.5 103590 51
2012-03-09 08:07:58 51°13.637 2°56.017 3 354 4.5 103590 51
2012-03-09 08:08:04 51°13.636 2°56.018 2.5 359 4.5 103580 51
2012-03-09 08:08:09 51°13.636 2°56.017 3.2 16 4.5 103580 51
2012-03-09 08:08:14 51°13.636 2°56.018 3.4 23 4.5 103580 51
2012-03-09 08:08:19 51°13.637 2°56.019 2.8 16 4.5 103580 51
2012-03-09 08:08:24 51°13.637 2°56.019 2.3 14 4.5 103580 52
2012-03-09 08:08:29 51°13.638 2°56.02 2.6 14 4.5 103580 52
2012-03-09 08:08:34 51°13.638 2°56.02 2.1 9 4.5 103580 52
2012-03-09 08:08:39 51°13.638 2°56.019 1.6 9 4.5 103580 52
2012-03-09 08:08:44 51°13.638 2°56.019 1.2 7 4.5 103590 51
2012-03-09 08:08:49 51°13.638 2°56.019 1.1 357 4.5 103590 51
2012-03-09 08:08:54 51°13.637 2°56.019 0.7 355 4.5 103580 51
2012-03-09 08:08:59 51°13.637 2°56.018 1.5 351 4.5 103580 51
2012-03-09 08:09:04 51°13.637 2°56.018 2.5 351 4.5 103580 52
2012-03-09 08:09:09 51°13.637 2°56.018 2.1 3 4.5 103580 52
2012-03-09 08:09:14 51°13.637 2°56.018 1.5 6 4.5 103580 51
2012-03-09 08:09:19 51°13.637 2°56.018 2.8 341 4.5 103580 51
2012-03-09 08:09:24 51°13.638 2°56.018 0.9 346 4.5 103580 52
2012-03-09 08:09:29 51°13.637 2°56.018 2.2 13 4.5 103580 52
2012-03-09 08:09:34 51°13.638 2°56.018 2.1 360 4.5 103580 52
2012-03-09 08:09:39 51°13.637 2°56.018 1.2 353 4.5 103580 52
2012-03-09 08:09:43 51°13.637 2°56.018 0.5 9 4.5 103580 50
2012-03-09 08:09:48 51°13.638 2°56.019 1 2 4.5 103580 50
2012-03-09 08:09:53 51°13.637 2°56.019 2 11 4.5 103580 53
2012-03-09 08:09:59 51°13.637 2°56.018 0.9 14 4.5 103580 53
2012-03-09 08:10:04 51°13.637 2°56.018 0.9 1 4.5 103580 52
2012-03-09 08:10:09 51°13.637 2°56.018 1.2 10 4.5 103580 52
2012-03-09 08:10:14 51°13.636 2°56.018 0.2 1 4.5 103580 52
2012-03-09 08:10:19 51°13.637 2°56.018 1 7 4.5 103580 52
2012-03-09 08:10:24 51°13.637 2°56.018 0.2 8 4.6 103580 51
2012-03-09 08:10:29 51°13.637 2°56.018 0.7 8 4.6 103580 51
2012-03-09 08:10:34 51°13.637 2°56.018 2 9 4.6 103580 52
2012-03-09 08:10:39 51°13.637 2°56.018 0.3 13 4.6 103580 52
2012-03-09 08:10:44 51°13.637 2°56.018 0.2 12 4.6 103580 51
2012-03-09 08:10:49 51°13.637 2°56.018 0.2 20 4.6 103580 51
2012-03-09 08:10:54 51°13.638 2°56.019 1.6 26 4.6 103580 51
2012-03-09 08:10:59 51°13.638 2°56.019 2.2 22 4.6 103580 51
2012-03-09 08:11:04 51°13.638 2°56.019 2.2 16 4.6 103580 51
2012-03-09 08:11:08 51°13.637 2°56.019 1.8 15 4.6 103580 51
2012-03-09 08:11:14 51°13.638 2°56.019 1.4 30 4.6 103580 53
2012-03-09 08:11:19 51°13.637 2°56.019 0.3 18 4.6 103580 53
2012-03-09 08:11:24 51°13.637 2°56.019 0.4 9 4.6 103580 52
2012-03-09 08:11:28 51°13.638 2°56.019 1.2 3 4.6 103580 52
2012-03-09 08:11:34 51°13.637 2°56.019 1.2 358 4.6 103580 51
2012-03-09 08:11:39 51°13.637 2°56.018 1.4 357 4.6 103580 51
2012-03-09 08:11:44 51°13.637 2°56.019 0.9 357 4.6 103580 52
2012-03-09 08:11:49 51°13.637 2°56.019 1.3 2 4.6 103580 52
2012-03-09 08:11:54 51°13.637 2°56.019 1.5 5 4.6 103580 52
2012-03-09 08:11:59 51°13.637 2°56.019 1.1 17 4.6 103580 52
2012-03-09 08:12:04 51°13.637 2°56.018 2.1 26 4.6 103580 53
2012-03-09 08:12:08 51°13.637 2°56.018 2.9 26 4.6 103580 53
2012-03-09 08:12:14 51°13.637 2°56.019 2.6 19 4.6 103580 52
2012-03-09 08:12:19 51°13.637 2°56.019 2.8 20 4.6 103580 52
2012-03-09 08:12:24 51°13.638 2°56.019 2.6 10 4.6 103580 51
2012-03-09 08:12:29 51°13.637 2°56.018 2.4 357 4.6 103580 51
2012-03-09 08:12:34 51°13.637 2°56.018 0.9 7 4.5 103580 51
2012-03-09 08:12:39 51°13.637 2°56.018 1.2 5 4.5 103580 51
2012-03-09 08:12:44 51°13.637 2°56.018 0.7 12 4.6 103580 51
2012-03-09 08:12:49 51°13.637 2°56.018 1.9 9 4.6 103580 51
2012-03-09 08:12:54 51°13.637 2°56.019 3.3 7 4.5 103580 50
2012-03-09 08:12:59 51°13.637 2°56.018 2.9 1 4.5 103580 50
2012-03-09 08:13:04 51°13.636 2°56.018 2.6 6 4.6 103580 52
2012-03-09 08:13:08 51°13.637 2°56.018 3.5 10 4.6 103580 52
2012-03-09 08:13:14 51°13.637 2°56.018 4.1 11 4.6 103580 50
2012-03-09 08:13:19 51°13.637 2°56.018 2.8 10 4.6 103580 50
2012-03-09 08:13:24 51°13.637 2°56.018 1.8 5 4.6 103580 52
2012-03-09 08:13:28 51°13.637 2°56.019 2.3 359 4.6 103580 52
2012-03-09 08:13:34 51°13.637 2°56.018 1.7 14 4.6 103580 52
2012-03-09 08:13:39 51°13.637 2°56.018 1.8 10 4.6 103580 52
2012-03-09 08:13:44 51°13.637 2°56.018 0.8 6 4.6 103580 51
2012-03-09 08:13:48 51°13.637 2°56.018 1.8 355 4.6 103580 51
2012-03-09 08:13:54 51°13.637 2°56.018 1.6 6 4.6 103580 52
2012-03-09 08:13:59 51°13.637 2°56.018 0.3 5 4.6 103580 52
2012-03-09 08:14:04 51°13.637 2°56.018 1.7 8 4.5 103580 53
2012-03-09 08:14:08 51°13.637 2°56.018 2 4 4.5 103580 53
2012-03-09 08:14:14 51°13.637 2°56.018 2.7 358 4.6 103580 53
2012-03-09 08:14:19 51°13.637 2°56.018 2 1 4.6 103580 53
2012-03-09 08:14:24 51°13.637 2°56.017 1.5 3 4.6 103580 52
2012-03-09 08:14:29 51°13.637 2°56.017 1.9 2 4.6 103580 52
2012-03-09 08:14:34 51°13.637 2°56.018 0.9 10 4.6 103580 52
2012-03-09 08:14:39 51°13.637 2°56.018 2.2 11 4.6 103580 52
2012-03-09 08:14:44 51°13.637 2°56.018 2 7 4.6 103580 52
2012-03-09 08:14:49 51°13.637 2°56.018 1.7 6 4.6 103580 52
2012-03-09 08:14:54 51°13.637 2°56.018 2 4 4.5 103580 51
2012-03-09 08:14:59 51°13.636 2°56.018 0.6 4 4.5 103580 51
2012-03-09 08:15:04 51°13.636 2°56.018 2.6 3 4.5 103580 52
2012-03-09 08:15:09 51°13.637 2°56.018 2.9 357 4.5 103580 52
2012-03-09 08:15:14 51°13.637 2°56.018 2.6 -999 4.5 103580 51
2012-03-09 08:15:19 51°13.637 2°56.018 2.3 -999 4.5 103580 51
2012-03-09 08:15:24 51°13.637 2°56.019 2.1 3 4.5 103580 50
2012-03-09 08:15:28 51°13.636 2°56.018 2.8 10 4.5 103580 50
2012-03-09 08:15:34 51°13.637 2°56.018 3.8 11 4.5 103580 51
2012-03-09 08:15:39 51°13.636 2°56.018 3.2 14 4.5 103580 51
2012-03-09 08:15:44 51°13.637 2°56.018 2.4 1 4.5 103580 50
2012-03-09 08:15:48 51°13.637 2°56.018 2.4 5 4.5 103580 50
2012-03-09 08:15:54 51°13.637 2°56.018 4.5 10 4.5 103580 52
2012-03-09 08:15:59 51°13.637 2°56.019 4.9 15 4.5 103580 52
2012-03-09 08:16:04 51°13.636 2°56.018 4.8 17 4.5 103580 50
2012-03-09 08:16:09 51°13.636 2°56.018 5.3 17 4.5 103580 50
2012-03-09 08:16:14 51°13.636 2°56.018 4.9 14 4.5 103580 51
2012-03-09 08:16:19 51°13.636 2°56.018 4 20 4.5 103580 51
2012-03-09 08:16:24 51°13.636 2°56.018 3 10 4.5 103580 51
2012-03-09 08:16:28 51°13.636 2°56.018 3.3 16 4.5 103580 51
2012-03-09 08:16:34 51°13.636 2°56.018 2.9 24 4.5 103580 50
2012-03-09 08:16:39 51°13.636 2°56.018 2.5 20 4.5 103580 50
2012-03-09 08:16:44 51°13.636 2°56.018 2.2 21 4.5 103580 50
2012-03-09 08:16:49 51°13.636 2°56.019 1.9 23 4.5 103580 50
2012-03-09 08:16:54 51°13.636 2°56.018 2.9 15 4.5 103580 50
2012-03-09 08:16:59 51°13.636 2°56.018 2.2 23 4.5 103580 50
2012-03-09 08:17:04 51°13.636 2°56.018 2.4 12 4.5 103580 51
2012-03-09 08:17:09 51°13.636 2°56.018 1.4 15 4.5 103580 51
2012-03-09 08:17:14 51°13.635 2°56.018 1.3 19 4.5 103580 49
2012-03-09 08:17:19 51°13.635 2°56.018 1.2 10 4.5 103580 49
2012-03-09 08:17:24 51°13.636 2°56.018 2.6 17 4.5 103580 51
2012-03-09 08:17:29 51°13.635 2°56.018 1.2 23 4.5 103580 51
2012-03-09 08:17:34 51°13.635 2°56.018 1 17 4.5 103580 51
2012-03-09 08:17:39 51°13.635 2°56.018 0.7 10 4.5 103580 51
2012-03-09 08:17:44 51°13.635 2°56.018 1.1 3 4.5 103580 50
2012-03-09 08:17:48 51°13.635 2°56.018 1.9 14 4.5 103580 50
2012-03-09 08:17:54 51°13.635 2°56.018 2.1 12 4.5 103580 51
2012-03-09 08:17:59 51°13.635 2°56.018 2.5 17 4.5 103580 51
2012-03-09 08:18:04 51°13.635 2°56.018 2.1 17 4.5 103580 51
2012-03-09 08:18:08 51°13.635 2°56.018 4.1 17 4.5 103580 51
2012-03-09 08:18:14 51°13.635 2°56.017 3.3 15 4.5 103580 52
2012-03-09 08:18:19 51°13.635 2°56.017 2.8 22 4.5 103580 52
2012-03-09 08:18:24 51°13.635 2°56.017 3.7 27 4.5 103580 51
2012-03-09 08:18:28 51°13.635 2°56.017 2.9 30 4.5 103580 51
2012-03-09 08:18:33 51°13.635 2°56.017 2.5 25 4.5 103580 50
2012-03-09 08:18:39 51°13.634 2°56.017 2.2 34 4.5 103580 50
2012-03-09 08:18:44 51°13.634 2°56.017 2.8 23 4.5 103580 51
2012-03-09 08:18:49 51°13.635 2°56.016 1.5 28 4.5 103580 51
2012-03-09 08:18:54 51°13.635 2°56.015 1.3 23 4.5 103580 52
2012-03-09 08:18:59 51°13.636 2°56.012 1.9 21 4.5 103580 52
2012-03-09 08:19:04 51°13.637 2°56.008 3.8 25 4.5 103580 51
2012-03-09 08:19:09 51°13.639 2°56.002 3.5 37 4.5 103580 51
2012-03-09 08:19:14 51°13.641 2°55.996 5.2 43 4.5 103580 51
2012-03-09 08:19:19 51°13.642 2°55.99 4.7 44 4.5 103580 51
2012-03-09 08:19:24 51°13.644 2°55.983 3.7 27 4.6 103580 52
2012-03-09 08:19:29 51°13.646 2°55.976 4.5 41 4.6 103580 52
2012-03-09 08:19:34 51°13.648 2°55.969 5.9 18 4.6 103580 50
2012-03-09 08:19:39 51°13.65 2°55.962 5.2 32 4.6 103580 50
2012-03-09 08:19:44 51°13.652 2°55.955 4.6 31 4.6 103580 50
2012-03-09 08:19:49 51°13.653 2°55.947 4.2 29 4.6 103580 50
2012-03-09 08:19:54 51°13.655 2°55.94 3.6 29 4.6 103580 51
2012-03-09 08:19:59 51°13.657 2°55.935 3.9 21 4.6 103580 51
2012-03-09 08:20:04 51°13.658 2°55.932 4 21 4.6 103580 52
2012-03-09 08:20:08 51°13.659 2°55.931 2.9 11 4.6 103580 52
2012-03-09 08:20:14 51°13.659 2°55.931 2.6 1 4.6 103580 52
2012-03-09 08:20:19 51°13.66 2°55.93 2.4 18 4.6 103580 52
2012-03-09 08:20:24 51°13.661 2°55.929 3.1 26 4.6 103580 51
2012-03-09 08:20:28 51°13.662 2°55.926 2.3 32 4.6 103580 51
2012-03-09 08:20:34 51°13.663 2°55.922 3.4 35 4.6 103580 50
2012-03-09 08:20:39 51°13.664 2°55.918 3 28 4.6 103580 50
2012-03-09 08:20:44 51°13.666 2°55.914 3.9 37 4.6 103580 50
2012-03-09 08:20:48 51°13.667 2°55.911 2.7 38 4.6 103580 50
2012-03-09 08:20:54 51°13.669 2°55.904 3.3 37 4.6 103580 52
2012-03-09 08:20:59 51°13.672 2°55.898 2.3 30 4.6 103580 52
2012-03-09 08:21:04 51°13.674 2°55.89 2.8 44 4.6 103580 51
2012-03-09 08:21:09 51°13.676 2°55.883 2.5 29 4.6 103580 51
2012-03-09 08:21:14 51°13.679 2°55.875 3.3 26 4.6 103580 50
2012-03-09 08:21:19 51°13.682 2°55.867 2.4 42 4.6 103580 50
2012-03-09 08:21:24 51°13.685 2°55.857 2.5 43 4.6 103580 51
2012-03-09 08:21:29 51°13.689 2°55.848 4.5 37 4.6 103580 51
2012-03-09 08:21:34 51°13.692 2°55.838 4.9 42 4.6 103580 51
2012-03-09 08:21:39 51°13.696 2°55.828 3.5 33 4.6 103580 51
2012-03-09 08:21:44 51°13.7 2°55.818 3.8 31 4.6 103580 52
2012-03-09 08:21:49 51°13.705 2°55.808 3.4 39 4.6 103580 52
2012-03-09 08:21:54 51°13.709 2°55.797 5.4 40 4.6 103580 51
2012-03-09 08:21:59 51°13.713 2°55.787 5.1 40 4.6 103580 51
2012-03-09 08:22:04 51°13.718 2°55.778 5.1 36 4.6 103580 51
2012-03-09 08:22:09 51°13.721 2°55.768 5.5 39 4.6 103580 51
2012-03-09 08:22:14 51°13.725 2°55.759 4.6 30 4.6 103580 51
2012-03-09 08:22:19 51°13.729 2°55.75 4.3 33 4.6 103580 51
2012-03-09 08:22:24 51°13.734 2°55.742 4.6 28 4.6 103570 50
2012-03-09 08:22:28 51°13.737 2°55.736 4.1 29 4.6 103570 50
2012-03-09 08:22:34 51°13.743 2°55.727 3.1 29 4.6 103570 51
2012-03-09 08:22:39 51°13.747 2°55.719 2.3 21 4.6 103570 51
2012-03-09 08:22:44 51°13.752 2°55.711 2.2 24 4.6 103580 51
2012-03-09 08:22:49 51°13.757 2°55.704 2 21 4.6 103580 51
2012-03-09 08:22:54 51°13.763 2°55.698 1.9 18 4.6 103580 50
2012-03-09 08:22:59 51°13.768 2°55.691 1.8 15 4.6 103580 50
2012-03-09 08:23:04 51°13.774 2°55.685 1.4 15 4.6 103580 52
2012-03-09 08:23:08 51°13.779 2°55.68 2 25 4.6 103580 52
2012-03-09 08:23:14 51°13.787 2°55.672 1.7 28 4.6 103580 51
2012-03-09 08:23:19 51°13.794 2°55.666 3 33 4.6 103580 51
2012-03-09 08:23:24 51°13.801 2°55.66 2.6 23 4.6 103580 50
2012-03-09 08:23:29 51°13.808 2°55.655 1.9 29 4.6 103580 50
2012-03-09 08:23:34 51°13.814 2°55.649 3.2 29 4.6 103580 50
2012-03-09 08:23:39 51°13.821 2°55.644 1.9 17 4.6 103580 50
2012-03-09 08:23:44 51°13.827 2°55.639 2.4 11 4.7 103580 52
2012-03-09 08:23:49 51°13.834 2°55.634 2.2 1 4.7 103580 52
2012-03-09 08:23:54 51°13.84 2°55.63 1.6 359 4.7 103580 51
2012-03-09 08:23:59 51°13.847 2°55.626 2.1 346 4.7 103580 51
2012-03-09 08:24:04 51°13.853 2°55.621 2.5 352 4.7 103580 50
2012-03-09 08:24:09 51°13.859 2°55.617 2.5 17 4.7 103580 50
2012-03-09 08:24:14 51°13.865 2°55.613 1.8 27 4.7 103580 50
2012-03-09 08:24:19 51°13.871 2°55.609 1.3 18 4.7 103580 50
2012-03-09 08:24:24 51°13.878 2°55.606 1 356 4.7 103570 50
2012-03-09 08:24:29 51°13.884 2°55.602 0.3 7 4.7 103570 50
2012-03-09 08:24:34 51°13.89 2°55.6 0.8 21 4.7 103570 51
2012-03-09 08:24:37 51°13.894 2°55.598 0.2 287 4.7 103570 51
2012-03-09 08:24:44 51°13.902 2°55.595 0.2 287 4.7 103570 51
2012-03-09 08:24:49 51°13.908 2°55.592 0.2 287 4.7 103570 51
2012-03-09 08:24:54 51°13.913 2°55.589 0.2 287 4.7 103570 51
2012-03-09 08:24:59 51°13.918 2°55.587 0.2 287 4.7 103570 51
2012-03-09 08:25:04 51°13.923 2°55.584 0.2 287 -999 -999 -999
2012-03-09 08:25:09 51°13.928 2°55.582 -999 -999 -999 -999 -999
2012-03-09 08:25:14 51°13.933 2°55.581 -999 -999 -999 -999 -999
2012-03-09 08:25:19 51°13.937 2°55.578 -999 7 -999 -999 -999
2012-03-09 08:25:24 51°13.941 2°55.576 1.7 12 -999 -999 -999
2012-03-09 08:25:28 51°13.945 2°55.575 2.2 10 -999 -999 -999
2012-03-09 08:25:33 51°13.95 2°55.573 1.7 7 -999 -999 -999
2012-03-09 08:25:38 51°13.953 2°55.571 2.8 346 -999 -999 -999
2012-03-09 08:25:43 51°13.957 2°55.569 4 359 4.6 -999 35
2012-03-09 08:25:48 51°13.961 2°55.566 2.6 359 4.6 -999 35
2012-03-09 08:25:52 51°13.965 2°55.566 2.1 345 4.7 -999 51
2012-03-09 08:25:57 51°13.969 2°55.564 2.9 352 4.7 -999 51
2012-03-09 08:26:02 51°13.974 2°55.563 2.4 352 4.7 103580 50
2012-03-09 08:26:08 51°13.979 2°55.56 3.5 340 4.7 103580 50
2012-03-09 08:26:13 51°13.982 2°55.56 2.4 336 4.7 103570 53
2012-03-09 08:26:19 51°13.986 2°55.558 2.5 346 4.7 103570 53
2012-03-09 08:26:24 51°13.988 2°55.557 3.6 346 4.7 103580 51
2012-03-09 08:26:28 51°13.988 2°55.556 4.3 333 4.7 103580 51
2012-03-09 08:26:34 51°13.988 2°55.555 2.9 327 4.7 103570 51
2012-03-09 08:26:39 51°13.988 2°55.554 5.3 324 4.7 103570 51
2012-03-09 08:26:44 51°13.988 2°55.552 5.1 318 4.7 103570 50
2012-03-09 08:26:48 51°13.987 2°55.551 4.3 321 4.7 103570 50
2012-03-09 08:26:53 51°13.987 2°55.548 4 330 4.7 103570 50
2012-03-09 08:26:58 51°13.987 2°55.546 3.3 306 4.7 103570 50
2012-03-09 08:27:03 51°13.988 2°55.546 3.2 24 4.7 103570 50
2012-03-09 08:27:08 51°13.989 2°55.545 1.7 307 4.7 103570 50
2012-03-09 08:27:13 51°13.991 2°55.545 1.4 25 4.7 103570 50
2012-03-09 08:27:18 51°13.993 2°55.547 2.1 302 4.7 103570 50
2012-03-09 08:27:23 51°13.995 2°55.549 4 252 4.7 103570 50
2012-03-09 08:27:28 51°13.997 2°55.552 2.6 279 4.7 103570 50
2012-03-09 08:27:33 51°14 2°55.557 2.2 261 4.8 103570 51
2012-03-09 08:27:39 51°14.002 2°55.562 2.5 308 4.8 103570 51
2012-03-09 08:27:44 51°14.004 2°55.567 3 268 4.8 103570 52
2012-03-09 08:27:48 51°14.005 2°55.573 3 305 4.8 103570 52
2012-03-09 08:27:54 51°14.007 2°55.582 4.6 260 4.8 103580 50
2012-03-09 08:27:59 51°14.008 2°55.588 4.7 303 4.8 103580 50
2012-03-09 08:28:04 51°14.009 2°55.594 3.4 253 4.8 103570 52
2012-03-09 08:28:09 51°14.01 2°55.598 4 309 4.8 103570 52
2012-03-09 08:28:14 51°14.011 2°55.6 2.2 247 4.8 103580 52
2012-03-09 08:28:19 51°14.011 2°55.599 4.5 309 4.8 103580 52
2012-03-09 08:28:24 51°14.013 2°55.595 4.2 252 4.8 103580 50
2012-03-09 08:28:29 51°14.015 2°55.59 3.6 308 4.8 103580 50
2012-03-09 08:28:34 51°14.018 2°55.583 5.7 252 4.8 103570 53
2012-03-09 08:28:39 51°14.021 2°55.573 5.3 306 4.8 103570 53
2012-03-09 08:28:44 51°14.026 2°55.563 5.1 251 4.8 103570 52
2012-03-09 08:28:48 51°14.03 2°55.554 4.7 308 4.8 103570 52
2012-03-09 08:28:53 51°14.036 2°55.542 4.1 250 4.8 103570 50
2012-03-09 08:28:59 51°14.043 2°55.526 5.7 304 4.8 103570 50
2012-03-09 08:29:04 51°14.05 2°55.512 4.4 246 4.8 103570 52
2012-03-09 08:29:08 51°14.056 2°55.502 3.1 303 4.8 103570 52
2012-03-09 08:29:13 51°14.064 2°55.489 2.7 21 4.8 103570 52
2012-03-09 08:29:18 51°14.073 2°55.478 2.4 302 4.8 103570 52
2012-03-09 08:29:23 51°14.082 2°55.466 2.9 22 4.8 103570 50
2012-03-09 08:29:28 51°14.091 2°55.456 2.8 306 4.8 103570 50
2012-03-09 08:29:32 51°14.099 2°55.448 3.9 24 4.8 103570 50
2012-03-09 08:29:37 51°14.109 2°55.439 4.2 307 4.8 103570 50
2012-03-09 08:29:42 51°14.12 2°55.431 4.8 18 4.8 103570 52
2012-03-09 08:29:47 51°14.129 2°55.421 4.1 323 4.8 103570 52
2012-03-09 08:29:52 51°14.139 2°55.411 3 25 4.9 103570 51
2012-03-09 08:29:57 51°14.148 2°55.401 3.1 304 4.9 103570 51
2012-03-09 08:30:03 51°14.159 2°55.389 3.5 26 4.9 103570 51
2012-03-09 08:30:08 51°14.168 2°55.379 3.6 309 4.9 103570 51
2012-03-09 08:30:13 51°14.178 2°55.37 2.8 22 4.9 103570 49
2012-03-09 08:30:18 51°14.188 2°55.361 2.2 303 4.9 103570 49
2012-03-09 08:30:23 51°14.198 2°55.352 2.5 20 4.9 103570 52
2012-03-09 08:30:28 51°14.208 2°55.342 1.3 307 4.9 103570 52
2012-03-09 08:30:32 51°14.216 2°55.335 1.1 23 4.9 103570 52
2012-03-09 08:30:38 51°14.227 2°55.323 0.1 306 4.9 103570 52
2012-03-09 08:30:44 51°14.239 2°55.312 0.3 327 4.9 103570 51
2012-03-09 08:30:49 51°14.249 2°55.303 1.4 327 4.9 103570 51
2012-03-09 08:30:54 51°14.259 2°55.295 2.4 27 4.9 103570 51
2012-03-09 08:30:59 51°14.269 2°55.286 3.8 302 4.9 103570 51
2012-03-09 08:31:04 51°14.278 2°55.277 4.2 21 4.9 103570 50
2012-03-09 08:31:09 51°14.288 2°55.268 4.9 311 4.9 103570 50
2012-03-09 08:31:13 51°14.296 2°55.261 5.3 20 4.9 103570 50
2012-03-09 08:31:19 51°14.307 2°55.25 4.7 308 4.9 103570 50
2012-03-09 08:31:24 51°14.317 2°55.242 5.7 21 4.9 103570 51
2012-03-09 08:31:29 51°14.327 2°55.233 4.5 311 4.9 103570 51
2012-03-09 08:31:33 51°14.334 2°55.225 4.5 256 5 103570 52
2012-03-09 08:31:39 51°14.346 2°55.214 4.1 310 5 103570 52
2012-03-09 08:31:44 51°14.355 2°55.205 4.3 258 5 103570 51
2012-03-09 08:31:48 51°14.363 2°55.197 2.9 305 5 103570 51
2012-03-09 08:31:53 51°14.372 2°55.189 2.9 20 5 103580 51
2012-03-09 08:31:58 51°14.382 2°55.18 3.5 310 5 103580 51
2012-03-09 08:32:03 51°14.391 2°55.171 5 21 5 103570 51
2012-03-09 08:32:08 51°14.401 2°55.161 4.5 309 5 103570 51
2012-03-09 08:32:13 51°14.411 2°55.153 4.5 250 5 103580 50
2012-03-09 08:32:18 51°14.421 2°55.144 4.7 307 5 103580 50
2012-03-09 08:32:23 51°14.43 2°55.136 4.3 21 5 103570 50
2012-03-09 08:32:28 51°14.44 2°55.128 4.2 311 5 103570 50
2012-03-09 08:32:32 51°14.449 2°55.122 5.9 253 5.1 103570 51
2012-03-09 08:32:38 51°14.461 2°55.112 6.1 306 5.1 103570 51
2012-03-09 08:32:43 51°14.47 2°55.103 4.9 22 5.1 103580 52
2012-03-09 08:32:48 51°14.48 2°55.094 4.9 308 5.1 103580 52
2012-03-09 08:32:52 51°14.488 2°55.086 5.7 253 5.1 103580 51
2012-03-09 08:32:57 51°14.499 2°55.076 5.9 309 5.1 103580 51
2012-03-09 08:33:03 51°14.512 2°55.064 5.3 248 5.1 103580 52
2012-03-09 08:33:08 51°14.523 2°55.053 6.1 308 5.1 103580 52
2012-03-09 08:33:12 51°14.532 2°55.044 6.5 247 5.1 103580 51
2012-03-09 08:33:17 51°14.542 2°55.032 5.7 280 5.1 103580 51
2012-03-09 08:33:22 51°14.553 2°55.019 6.5 24 5.1 103580 52
2012-03-09 08:33:27 51°14.565 2°55.007 7.4 311 5.1 103580 52
2012-03-09 08:33:32 51°14.576 2°54.994 6.9 25 5.1 103580 51
2012-03-09 08:33:36 51°14.585 2°54.983 7 309 5.1 103580 51
2012-03-09 08:33:41 51°14.597 2°54.969 6.8 247 5.1 103580 51
2012-03-09 08:33:46 51°14.608 2°54.955 7.1 306 5.1 103580 51
2012-03-09 08:33:51 51°14.62 2°54.942 6.2 24 5.1 103580 52
2012-03-09 08:33:56 51°14.632 2°54.928 7.6 307 5.1 103580 52
2012-03-09 08:34:00 51°14.641 2°54.918 6.5 21 5.2 103570 52
2012-03-09 08:34:05 51°14.653 2°54.904 6.6 307 5.2 103570 52
2012-03-09 08:34:10 51°14.665 2°54.891 5.9 21 5.2 103580 52
2012-03-09 08:34:15 51°14.677 2°54.879 7 310 5.2 103580 52
2012-03-09 08:34:20 51°14.689 2°54.866 7.4 249 5.2 103580 52
2012-03-09 08:34:25 51°14.702 2°54.854 7.4 303 5.2 103580 52
2012-03-09 08:34:30 51°14.715 2°54.842 7.4 249 5.2 103580 52
2012-03-09 08:34:35 51°14.727 2°54.829 6.8 307 5.2 103580 52
2012-03-09 08:34:40 51°14.74 2°54.818 6.5 250 5.2 103580 52
2012-03-09 08:34:45 51°14.753 2°54.807 6.1 304 5.2 103580 52
2012-03-09 08:34:50 51°14.766 2°54.797 6.3 250 5.2 103580 52
2012-03-09 08:34:56 51°14.782 2°54.785 5.8 305 5.2 103580 52
2012-03-09 08:35:00 51°14.793 2°54.778 6 249 5.2 103580 50
2012-03-09 08:35:05 51°14.807 2°54.77 5.5 309 5.2 103580 50
2012-03-09 08:35:10 51°14.821 2°54.761 5.8 251 5.2 103580 52
2012-03-09 08:35:15 51°14.835 2°54.754 5.2 303 5.2 103580 52
2012-03-09 08:35:20 51°14.849 2°54.748 5.4 249 5.2 103590 52
2012-03-09 08:35:25 51°14.864 2°54.743 4.8 310 5.2 103590 52
2012-03-09 08:35:30 51°14.878 2°54.739 4.6 18 5.2 103580 52
2012-03-09 08:35:35 51°14.893 2°54.735 4.9 309 5.2 103580 52
2012-03-09 08:35:40 51°14.908 2°54.732 5.2 254 5.2 103590 51
2012-03-09 08:35:45 51°14.923 2°54.729 5.6 308 5.2 103590 51
2012-03-09 08:35:50 51°14.938 2°54.725 6.2 255 5.2 103590 52
2012-03-09 08:35:55 51°14.953 2°54.722 4.7 303 5.2 103590 52
2012-03-09 08:36:00 51°14.968 2°54.72 4.3 253 5.2 103580 53
2012-03-09 08:36:05 51°14.983 2°54.717 4.2 309 5.2 103580 53
2012-03-09 08:36:10 51°14.999 2°54.715 4.3 254 5.2 103590 51
2012-03-09 08:36:15 51°15.014 2°54.712 4.3 307 5.2 103590 51
2012-03-09 08:36:20 51°15.029 2°54.711 3.8 252 5.2 103590 51
2012-03-09 08:36:25 51°15.044 2°54.709 4.5 306 5.2 103590 51
2012-03-09 08:36:30 51°15.059 2°54.706 4.8 257 5.2 103590 53
2012-03-09 08:36:36 51°15.077 2°54.703 4.6 308 5.2 103590 53
2012-03-09 08:36:40 51°15.088 2°54.701 5 253 5.2 103590 51
2012-03-09 08:36:45 51°15.103 2°54.7 4.6 307 5.2 103590 51
2012-03-09 08:36:50 51°15.118 2°54.698 4.7 255 5.2 103590 51
2012-03-09 08:36:56 51°15.136 2°54.697 5.2 304 5.2 103590 51
2012-03-09 08:37:00 51°15.147 2°54.695 5.4 259 5.2 103590 53
2012-03-09 08:37:05 51°15.162 2°54.692 5.5 308 5.2 103590 53
2012-03-09 08:37:10 51°15.177 2°54.689 5.5 255 5.3 103590 52
2012-03-09 08:37:15 51°15.192 2°54.685 4.8 309 5.3 103590 52
2012-03-09 08:37:20 51°15.206 2°54.679 5.4 250 5.3 103590 53
2012-03-09 08:37:25 51°15.221 2°54.672 5.7 305 5.3 103590 53
2012-03-09 08:37:30 51°15.236 2°54.666 5.7 249 5.3 103590 51
2012-03-09 08:37:35 51°15.25 2°54.658 5.8 306 5.3 103590 51
2012-03-09 08:37:40 51°15.264 2°54.651 5.7 250 5.3 103590 51
2012-03-09 08:37:45 51°15.279 2°54.644 6.6 309 5.3 103590 51
2012-03-09 08:37:50 51°15.294 2°54.637 4.9 253 5.3 103590 53
2012-03-09 08:37:55 51°15.308 2°54.63 4.7 304 5.3 103590 53
2012-03-09 08:38:00 51°15.322 2°54.625 5.3 252 5.3 103590 52
2012-03-09 08:38:05 51°15.335 2°54.62 6.2 309 5.3 103590 52
2012-03-09 08:38:10 51°15.347 2°54.615 4.8 257 5.3 103590 52
2012-03-09 08:38:15 51°15.359 2°54.612 5.5 308 5.3 103590 52
2012-03-09 08:38:20 51°15.37 2°54.609 5 263 5.3 103590 52
2012-03-09 08:38:25 51°15.381 2°54.606 3.5 307 5.3 103590 52
2012-03-09 08:38:30 51°15.391 2°54.604 3.4 266 5.3 103590 51
2012-03-09 08:38:35 51°15.401 2°54.601 2.3 302 5.3 103590 51
2012-03-09 08:38:40 51°15.41 2°54.599 3.1 267 5.3 103590 51
2012-03-09 08:38:45 51°15.419 2°54.596 2.9 306 5.3 103590 51
2012-03-09 08:38:50 51°15.428 2°54.594 4 264 5.3 103590 52
2012-03-09 08:38:56 51°15.438 2°54.59 3.5 303 5.3 103590 52
2012-03-09 08:39:00 51°15.444 2°54.587 3.3 263 5.3 103590 51
2012-03-09 08:39:05 51°15.452 2°54.584 5.1 304 5.3 103590 51
2012-03-09 08:39:10 51°15.459 2°54.58 5.5 262 5.3 103590 53
2012-03-09 08:39:16 51°15.468 2°54.575 5.5 303 5.3 103590 53
2012-03-09 08:39:20 51°15.474 2°54.571 5.9 262 5.3 103600 53
2012-03-09 08:39:25 51°15.481 2°54.566 5.9 310 5.3 103600 53
2012-03-09 08:39:30 51°15.488 2°54.562 5.9 261 5.3 103590 52
2012-03-09 08:39:35 51°15.494 2°54.557 6.5 309 5.3 103590 52
2012-03-09 08:39:40 51°15.5 2°54.551 4.7 262 5.3 103590 52
2012-03-09 08:39:45 51°15.507 2°54.546 5.3 304 5.3 103590 52
2012-03-09 08:39:50 51°15.513 2°54.54 6.1 261 5.3 103590 51
2012-03-09 08:39:55 51°15.519 2°54.534 6.7 309 5.3 103590 51
2012-03-09 08:40:00 51°15.525 2°54.528 6.4 259 5.3 103590 52
2012-03-09 08:40:05 51°15.531 2°54.523 6.4 309 5.3 103590 52
2012-03-09 08:40:10 51°15.536 2°54.516 8 259 5.2 103590 51
2012-03-09 08:40:15 51°15.542 2°54.511 6.6 306 5.2 103590 51
2012-03-09 08:40:20 51°15.548 2°54.505 7.1 261 5.3 103590 51
2012-03-09 08:40:25 51°15.554 2°54.499 7.4 305 5.3 103590 51
2012-03-09 08:40:30 51°15.56 2°54.493 6.9 262 5.3 103590 51
2012-03-09 08:40:35 51°15.566 2°54.488 6.7 310 5.3 103590 51
2012-03-09 08:40:40 51°15.572 2°54.482 6.7 260 5.3 103590 53
2012-03-09 08:40:45 51°15.578 2°54.476 6.3 284 5.3 103590 53
2012-03-09 08:40:51 51°15.585 2°54.469 6.7 258 5.3 103590 51
2012-03-09 08:40:55 51°15.589 2°54.464 5.5 308 5.3 103590 51
2012-03-09 08:41:00 51°15.595 2°54.458 5.8 261 5.3 103590 51
2012-03-09 08:41:05 51°15.601 2°54.453 6.3 307 5.3 103590 51
2012-03-09 08:41:10 51°15.606 2°54.446 5.7 262 5.3 103590 52
2012-03-09 08:41:15 51°15.612 2°54.441 6.4 305 5.3 103590 52
2012-03-09 08:41:20 51°15.619 2°54.435 5.5 262 5.3 103590 52
2012-03-09 08:41:25 51°15.625 2°54.429 5.5 302 5.3 103590 52
2012-03-09 08:41:30 51°15.631 2°54.424 6.9 258 5.3 103590 52
2012-03-09 08:41:35 51°15.637 2°54.418 7.2 311 5.3 103590 52
2012-03-09 08:41:40 51°15.643 2°54.413 6.3 260 5.3 103590 51
2012-03-09 08:41:45 51°15.65 2°54.408 7.3 310 5.3 103590 51
2012-03-09 08:41:50 51°15.656 2°54.402 7.3 260 5.3 103590 52
2012-03-09 08:41:55 51°15.663 2°54.396 7.1 309 5.3 103590 52
2012-03-09 08:42:00 51°15.669 2°54.391 5.6 262 5.3 103590 51
2012-03-09 08:42:05 51°15.675 2°54.385 5.8 306 5.3 103590 51
2012-03-09 08:42:10 51°15.681 2°54.379 5.2 263 5.3 103590 51
2012-03-09 08:42:15 51°15.688 2°54.374 6.4 304 5.3 103590 51
2012-03-09 08:42:20 51°15.694 2°54.368 7.1 260 5.3 103590 52
2012-03-09 08:42:25 51°15.7 2°54.362 6.1 307 5.3 103590 52
2012-03-09 08:42:30 51°15.707 2°54.357 4.4 263 5.3 103590 53
2012-03-09 08:42:35 51°15.713 2°54.351 6.4 305 5.3 103590 53
2012-03-09 08:42:40 51°15.72 2°54.346 5.3 264 5.3 103590 51
2012-03-09 08:42:45 51°15.726 2°54.34 6 310 5.3 103590 51
2012-03-09 08:42:50 51°15.733 2°54.335 4.5 263 5.3 103590 51
2012-03-09 08:42:55 51°15.74 2°54.33 5.6 311 5.3 103590 51
2012-03-09 08:43:00 51°15.746 2°54.325 4.5 264 5.3 103590 51
2012-03-09 08:43:05 51°15.753 2°54.32 5.1 304 5.3 103590 51
2012-03-09 08:43:10 51°15.759 2°54.315 4.5 263 5.3 103590 52
2012-03-09 08:43:15 51°15.766 2°54.31 5 306 5.3 103590 52
2012-03-09 08:43:20 51°15.773 2°54.305 4.6 264 5.3 103590 52
2012-03-09 08:43:25 51°15.78 2°54.3 4.2 308 5.3 103590 52
2012-03-09 08:43:30 51°15.786 2°54.295 5.4 263 5.3 103590 52
2012-03-09 08:43:36 51°15.794 2°54.289 3.6 303 5.3 103590 52
2012-03-09 08:43:40 51°15.799 2°54.285 3.8 263 5.3 103590 53
2012-03-09 08:43:45 51°15.806 2°54.28 5.7 308 5.3 103590 53
2012-03-09 08:43:50 51°15.813 2°54.274 4.8 263 5.3 103590 52
2012-03-09 08:43:55 51°15.819 2°54.269 5.7 304 5.3 103590 52
2012-03-09 08:44:00 51°15.826 2°54.264 5.1 264 5.3 103590 52
2012-03-09 08:44:05 51°15.832 2°54.258 5.5 308 5.3 103590 52
2012-03-09 08:44:10 51°15.839 2°54.253 5.2 260 5.3 103590 52
2012-03-09 08:44:15 51°15.846 2°54.248 5.2 303 5.3 103590 52
2012-03-09 08:44:20 51°15.852 2°54.241 4.3 265 5.3 103590 52
2012-03-09 08:44:25 51°15.858 2°54.235 4.3 303 5.3 103590 52
2012-03-09 08:44:30 51°15.865 2°54.229 6.6 259 5.3 103590 51
2012-03-09 08:44:35 51°15.871 2°54.223 6.3 308 5.3 103590 51
2012-03-09 08:44:40 51°15.878 2°54.217 5.4 254 5.3 103590 53
2012-03-09 08:44:45 51°15.884 2°54.211 5.1 305 5.3 103590 53
2012-03-09 08:44:50 51°15.89 2°54.204 6.8 255 5.3 103590 51
2012-03-09 08:44:55 51°15.897 2°54.197 6.4 308 5.3 103590 51
2012-03-09 08:45:00 51°15.903 2°54.19 7.9 258 5.3 103590 52
2012-03-09 08:45:04 51°15.908 2°54.185 7.5 280 5.3 103590 52
2012-03-09 08:45:10 51°15.915 2°54.177 8.3 260 5.3 103590 51
2012-03-09 08:45:15 51°15.922 2°54.17 7.9 302 5.3 103590 51
2012-03-09 08:45:20 51°15.928 2°54.163 6.7 260 5.3 103590 52
2012-03-09 08:45:25 51°15.934 2°54.155 7 303 5.3 103590 52
2012-03-09 08:45:30 51°15.94 2°54.148 5.8 262 5.4 103590 52
2012-03-09 08:45:36 51°15.947 2°54.139 7 304 5.4 103590 52
2012-03-09 08:45:40 51°15.951 2°54.133 7 255 5.4 103590 52
2012-03-09 08:45:45 51°15.958 2°54.125 7.9 304 5.4 103590 52
2012-03-09 08:45:50 51°15.963 2°54.117 7.2 257 5.4 103590 52
2012-03-09 08:45:56 51°15.97 2°54.108 7.4 301 5.4 103590 52
2012-03-09 08:46:00 51°15.975 2°54.102 6.8 260 5.4 103590 52
2012-03-09 08:46:05 51°15.981 2°54.094 7.6 301 5.4 103590 52
2012-03-09 08:46:10 51°15.987 2°54.087 7.5 257 5.4 103590 51
2012-03-09 08:46:15 51°15.993 2°54.079 8.8 309 5.4 103590 51
2012-03-09 08:46:20 51°15.999 2°54.071 6.8 259 5.4 103590 52
2012-03-09 08:46:25 51°16.005 2°54.064 8 308 5.4 103590 52
2012-03-09 08:46:30 51°16.011 2°54.057 6.8 261 5.4 103590 52
2012-03-09 08:46:36 51°16.019 2°54.048 7.3 310 5.4 103590 52
2012-03-09 08:46:40 51°16.024 2°54.042 5.9 258 5.4 103590 51
2012-03-09 08:46:45 51°16.03 2°54.035 6.4 310 5.4 103590 51
2012-03-09 08:46:50 51°16.036 2°54.027 7.4 255 5.4 103590 53
2012-03-09 08:46:56 51°16.043 2°54.018 7.3 307 5.4 103590 53
2012-03-09 08:47:00 51°16.047 2°54.012 8.2 259 5.4 103590 51
2012-03-09 08:47:05 51°16.054 2°54.005 6.9 302 5.4 103590 51
2012-03-09 08:47:11 51°16.061 2°53.997 7 259 5.4 103580 51
2012-03-09 08:47:16 51°16.067 2°53.99 6.1 305 5.4 103580 51
2012-03-09 08:47:20 51°16.072 2°53.984 7.2 260 5.5 103590 51
2012-03-09 08:47:25 51°16.078 2°53.977 5.9 307 5.5 103590 51
2012-03-09 08:47:30 51°16.084 2°53.97 7 261 5.5 103590 51
2012-03-09 08:47:35 51°16.09 2°53.963 7.4 307 5.5 103590 51
2012-03-09 08:47:40 51°16.097 2°53.956 7.1 262 5.5 103590 52
2012-03-09 08:47:45 51°16.103 2°53.951 6.6 304 5.5 103590 52
2012-03-09 08:47:50 51°16.11 2°53.945 5.1 264 5.5 103580 52
2012-03-09 08:47:56 51°16.117 2°53.937 5.6 307 5.5 103580 52
2012-03-09 08:48:00 51°16.122 2°53.932 5.1 262 5.5 103590 52
2012-03-09 08:48:04 51°16.127 2°53.927 5.8 306 5.5 103590 52
2012-03-09 08:48:10 51°16.134 2°53.92 5 264 5.5 103580 51
2012-03-09 08:48:16 51°16.142 2°53.912 5.3 309 5.5 103580 51
2012-03-09 08:48:20 51°16.146 2°53.907 4.6 264 5.5 103580 52
2012-03-09 08:48:25 51°16.153 2°53.901 5.5 307 5.5 103580 52
2012-03-09 08:48:30 51°16.159 2°53.895 6.3 261 5.5 103580 52
2012-03-09 08:48:35 51°16.165 2°53.888 5.2 309 5.5 103580 52
2012-03-09 08:48:40 51°16.171 2°53.882 6.6 259 5.5 103580 51
2012-03-09 08:48:45 51°16.177 2°53.876 4 305 5.5 103580 51
2012-03-09 08:48:50 51°16.184 2°53.87 5.5 262 5.5 103580 52
2012-03-09 08:48:55 51°16.19 2°53.864 6.5 304 5.5 103580 52
2012-03-09 08:49:00 51°16.196 2°53.857 6.7 260 5.5 103580 52
2012-03-09 08:49:05 51°16.203 2°53.851 6.4 310 5.5 103580 52
2012-03-09 08:49:10 51°16.209 2°53.844 6.8 260 5.5 103580 51
2012-03-09 08:49:15 51°16.214 2°53.837 7.3 307 5.5 103580 51
2012-03-09 08:49:20 51°16.22 2°53.831 6.5 262 5.5 103580 51
2012-03-09 08:49:25 51°16.226 2°53.824 5.2 308 5.5 103580 51
2012-03-09 08:49:30 51°16.232 2°53.817 6.7 257 5.5 103580 51
2012-03-09 08:49:36 51°16.239 2°53.809 7.2 307 5.5 103580 51
2012-03-09 08:49:40 51°16.244 2°53.804 8.2 260 5.5 103580 51
2012-03-09 08:49:45 51°16.25 2°53.798 6 308 5.5 103580 51
2012-03-09 08:49:50 51°16.256 2°53.791 5.4 260 5.5 103590 51
2012-03-09 08:49:55 51°16.262 2°53.784 6 307 5.5 103590 51
2012-03-09 08:50:00 51°16.269 2°53.778 6.7 262 5.5 103600 53
2012-03-09 08:50:05 51°16.274 2°53.77 5.7 308 5.5 103600 53
2012-03-09 08:50:10 51°16.28 2°53.764 7.3 260 5.5 103600 51
2012-03-09 08:50:16 51°16.287 2°53.756 7.3 303 5.5 103600 51
2012-03-09 08:50:20 51°16.292 2°53.75 7.7 259 5.5 103600 51
2012-03-09 08:50:24 51°16.296 2°53.744 7.4 303 5.5 103600 51
2012-03-09 08:50:30 51°16.303 2°53.735 5.5 259 5.5 103600 51
2012-03-09 08:50:35 51°16.309 2°53.727 7.1 308 5.5 103600 51
2012-03-09 08:50:40 51°16.314 2°53.719 7.8 258 5.5 103590 51
2012-03-09 08:50:45 51°16.32 2°53.711 8.5 302 5.5 103590 51
2012-03-09 08:50:50 51°16.325 2°53.702 7.8 259 5.5 103600 53
2012-03-09 08:50:55 51°16.33 2°53.693 6.5 305 5.5 103600 53
2012-03-09 08:51:00 51°16.335 2°53.684 7.5 255 5.5 103600 51
2012-03-09 08:51:05 51°16.34 2°53.675 7.9 305 5.5 103600 51
2012-03-09 08:51:10 51°16.345 2°53.666 8.9 258 5.5 103600 52
2012-03-09 08:51:15 51°16.35 2°53.657 8.1 308 5.5 103600 52
2012-03-09 08:51:20 51°16.355 2°53.647 8.2 255 5.5 103600 52
2012-03-09 08:51:25 51°16.36 2°53.638 7.6 308 5.5 103600 52
2012-03-09 08:51:30 51°16.364 2°53.628 7 254 5.5 103600 51
2012-03-09 08:51:35 51°16.369 2°53.618 7.7 307 5.5 103600 51
2012-03-09 08:51:40 51°16.374 2°53.609 8.4 255 5.5 103610 51
2012-03-09 08:51:45 51°16.379 2°53.6 8.9 305 5.5 103610 51
2012-03-09 08:51:50 51°16.383 2°53.589 8.6 254 5.5 103600 52
2012-03-09 08:51:55 51°16.388 2°53.58 7.9 311 5.5 103600 52
2012-03-09 08:52:00 51°16.393 2°53.57 8.1 256 5.5 103600 51
2012-03-09 08:52:05 51°16.398 2°53.56 8.8 307 5.5 103600 51
2012-03-09 08:52:10 51°16.403 2°53.55 7.2 254 5.5 103610 52
2012-03-09 08:52:15 51°16.408 2°53.541 8.5 311 5.5 103610 52
2012-03-09 08:52:20 51°16.413 2°53.531 8.7 257 5.5 103610 51
2012-03-09 08:52:25 51°16.419 2°53.523 7.9 303 5.5 103610 51
2012-03-09 08:52:30 51°16.424 2°53.514 7.4 258 5.5 103610 52
2012-03-09 08:52:36 51°16.43 2°53.502 8.9 303 5.5 103610 52
2012-03-09 08:52:40 51°16.434 2°53.495 7.8 257 5.5 103610 52
2012-03-09 08:52:45 51°16.44 2°53.487 9.1 308 5.5 103610 52
2012-03-09 08:52:50 51°16.445 2°53.478 6.8 257 5.5 103600 52
2012-03-09 08:52:55 51°16.45 2°53.468 9.1 304 5.5 103600 52
2012-03-09 08:53:00 51°16.456 2°53.46 9.4 257 5.5 103600 52
2012-03-09 08:53:05 51°16.461 2°53.451 8.6 302 5.5 103600 52
2012-03-09 08:53:10 51°16.467 2°53.443 7.2 256 5.5 103610 52
2012-03-09 08:53:15 51°16.473 2°53.435 7.1 308 5.5 103610 52
2012-03-09 08:53:20 51°16.479 2°53.427 9.3 259 5.5 103610 52
2012-03-09 08:53:25 51°16.484 2°53.419 7.5 309 5.5 103610 52
2012-03-09 08:53:30 51°16.49 2°53.411 8.4 256 5.5 103600 51
2012-03-09 08:53:35 51°16.495 2°53.402 8.6 303 5.5 103600 51
2012-03-09 08:53:40 51°16.501 2°53.394 8.3 259 5.5 103610 51
2012-03-09 08:53:45 51°16.507 2°53.386 7.4 303 5.5 103610 51
2012-03-09 08:53:50 51°16.512 2°53.378 6.9 260 5.5 103610 51
2012-03-09 08:53:55 51°16.518 2°53.37 6.7 309 5.5 103610 51
2012-03-09 08:54:00 51°16.523 2°53.363 6.6 253 5.5 103610 52
2012-03-09 08:54:05 51°16.529 2°53.355 7.5 303 5.5 103610 52
2012-03-09 08:54:10 51°16.534 2°53.347 6.9 258 5.5 103610 51
2012-03-09 08:54:15 51°16.54 2°53.339 7.7 306 5.5 103610 51
2012-03-09 08:54:20 51°16.546 2°53.332 6.3 262 5.5 103610 52
2012-03-09 08:54:25 51°16.552 2°53.325 6.9 303 5.5 103610 52
2012-03-09 08:54:30 51°16.557 2°53.318 6.5 263 5.5 103610 52
2012-03-09 08:54:36 51°16.564 2°53.308 7 303 5.5 103610 52
2012-03-09 08:54:40 51°16.569 2°53.302 5.4 264 5.5 103600 51
2012-03-09 08:54:45 51°16.574 2°53.295 5.5 305 5.5 103600 51
2012-03-09 08:54:50 51°16.58 2°53.288 6 262 5.5 103600 52
2012-03-09 08:54:56 51°16.587 2°53.279 6.4 306 5.5 103600 52
2012-03-09 08:55:00 51°16.591 2°53.273 6.1 262 5.5 103600 52
2012-03-09 08:55:05 51°16.597 2°53.265 6.6 304 5.5 103600 52
2012-03-09 08:55:10 51°16.603 2°53.258 6.6 261 5.5 103610 51
2012-03-09 08:55:15 51°16.609 2°53.251 6 303 5.5 103610 51
2012-03-09 08:55:20 51°16.614 2°53.244 6 262 5.5 103600 51
2012-03-09 08:55:25 51°16.619 2°53.235 6.6 304 5.5 103600 51
2012-03-09 08:55:30 51°16.625 2°53.228 6.8 262 5.5 103600 52
2012-03-09 08:55:35 51°16.63 2°53.22 6.4 307 5.5 103600 52
2012-03-09 08:55:40 51°16.636 2°53.213 6.6 258 5.5 103610 52
2012-03-09 08:55:45 51°16.641 2°53.205 7.7 303 5.5 103610 52
2012-03-09 08:55:50 51°16.647 2°53.197 7.3 258 5.5 103600 51
2012-03-09 08:55:55 51°16.652 2°53.189 6.7 309 5.5 103600 51
2012-03-09 08:56:00 51°16.658 2°53.181 6.3 257 5.5 103600 51
2012-03-09 08:56:05 51°16.663 2°53.172 8.1 310 5.5 103600 51
2012-03-09 08:56:10 51°16.668 2°53.164 8.1 258 5.5 103600 52
2012-03-09 08:56:15 51°16.673 2°53.155 6.9 307 5.5 103600 52
2012-03-09 08:56:20 51°16.677 2°53.147 6.8 254 5.5 103600 50
2012-03-09 08:56:25 51°16.683 2°53.138 7.2 304 5.5 103600 50
2012-03-09 08:56:30 51°16.688 2°53.13 7.4 256 5.5 103600 51
2012-03-09 08:56:36 51°16.694 2°53.12 7.6 310 5.5 103600 51
2012-03-09 08:56:40 51°16.698 2°53.114 8.6 257 5.5 103600 51
2012-03-09 08:56:45 51°16.703 2°53.106 7.4 303 5.5 103600 51
2012-03-09 08:56:50 51°16.709 2°53.097 7.5 259 5.5 103610 52
2012-03-09 08:56:56 51°16.715 2°53.088 7.8 306 5.5 103610 52
2012-03-09 08:57:00 51°16.719 2°53.081 7.8 257 5.5 103610 52
2012-03-09 08:57:05 51°16.725 2°53.073 7.2 306 5.5 103610 52
2012-03-09 08:57:10 51°16.73 2°53.066 7.6 261 5.5 103610 51
2012-03-09 08:57:15 51°16.736 2°53.058 6.5 308 5.5 103610 51
2012-03-09 08:57:20 51°16.741 2°53.05 6 260 5.5 103610 51
2012-03-09 08:57:25 51°16.746 2°53.042 7.6 304 5.5 103610 51
2012-03-09 08:57:30 51°16.752 2°53.035 6.1 259 5.5 103610 52
2012-03-09 08:57:35 51°16.758 2°53.028 7.3 308 5.5 103610 52
2012-03-09 08:57:40 51°16.763 2°53.02 7 257 5.5 103610 51
2012-03-09 08:57:45 51°16.769 2°53.013 6.1 310 5.5 103610 51
2012-03-09 08:57:50 51°16.774 2°53.006 7.7 259 5.5 103610 52
2012-03-09 08:57:55 51°16.779 2°52.998 6.1 303 5.5 103610 52
2012-03-09 08:58:00 51°16.785 2°52.99 7 258 5.5 103600 52
2012-03-09 08:58:05 51°16.79 2°52.983 7.7 307 5.5 103600 52
2012-03-09 08:58:10 51°16.796 2°52.976 6.5 259 5.5 103620 52
2012-03-09 08:58:15 51°16.802 2°52.969 7.1 307 5.5 103620 52
2012-03-09 08:58:20 51°16.807 2°52.962 8.2 258 5.5 103610 52
2012-03-09 08:58:25 51°16.813 2°52.955 7.3 308 5.5 103610 52
2012-03-09 08:58:30 51°16.818 2°52.947 6.2 261 5.5 103610 52
2012-03-09 08:58:35 51°16.824 2°52.941 5.7 303 5.5 103610 52
2012-03-09 08:58:40 51°16.83 2°52.934 6.4 261 5.5 103610 51
2012-03-09 08:58:45 51°16.835 2°52.927 6.6 305 5.5 103610 51
2012-03-09 08:58:50 51°16.841 2°52.92 6.7 260 5.5 103610 51
2012-03-09 08:58:55 51°16.846 2°52.913 6.8 308 5.5 103610 51
2012-03-09 08:59:00 51°16.852 2°52.906 7.8 259 5.5 103600 50
2012-03-09 08:59:05 51°16.858 2°52.899 7.6 306 5.5 103600 50
2012-03-09 08:59:10 51°16.863 2°52.893 7.3 259 5.5 103600 51
2012-03-09 08:59:16 51°16.87 2°52.885 6.5 309 5.5 103600 51
2012-03-09 08:59:20 51°16.875 2°52.88 7.9 258 5.5 103600 52
2012-03-09 08:59:25 51°16.88 2°52.873 7.3 304 5.5 103600 52
2012-03-09 08:59:30 51°16.886 2°52.866 7.5 257 5.5 103600 51
2012-03-09 08:59:35 51°16.892 2°52.86 7.3 308 5.5 103600 51
2012-03-09 08:59:40 51°16.897 2°52.853 7.5 261 5.5 103600 52
2012-03-09 08:59:45 51°16.903 2°52.847 7.1 310 5.5 103600 52
2012-03-09 08:59:50 51°16.909 2°52.841 6.3 258 5.6 103600 52
2012-03-09 08:59:55 51°16.914 2°52.833 6.9 302 5.6 103600 52
2012-03-09 09:00:00 51°16.919 2°52.826 6 258 5.6 103600 52
2012-03-09 09:00:05 51°16.924 2°52.818 7.3 310 5.6 103600 52
2012-03-09 09:00:10 51°16.929 2°52.811 7 257 5.6 103600 51
2012-03-09 09:00:15 51°16.935 2°52.804 7.5 304 5.6 103600 51
2012-03-09 09:00:20 51°16.94 2°52.797 7.7 257 5.6 103600 52
2012-03-09 09:00:25 51°16.945 2°52.789 8.3 303 5.6 103600 52
2012-03-09 09:00:30 51°16.95 2°52.782 5.8 255 5.6 103600 51
2012-03-09 09:00:35 51°16.956 2°52.775 6.7 303 5.6 103600 51
2012-03-09 09:00:40 51°16.961 2°52.767 6.9 258 5.6 103600 52
2012-03-09 09:00:45 51°16.966 2°52.76 7.9 304 5.6 103600 52
2012-03-09 09:00:50 51°16.971 2°52.753 6.4 256 5.6 103600 51
2012-03-09 09:00:56 51°16.978 2°52.745 7.4 307 5.6 103600 51
2012-03-09 09:01:00 51°16.982 2°52.739 8.7 257 5.6 103600 52
2012-03-09 09:01:05 51°16.987 2°52.731 6.6 308 5.6 103600 52
2012-03-09 09:01:10 51°16.992 2°52.723 7.9 259 5.6 103600 52
2012-03-09 09:01:16 51°16.998 2°52.715 5.9 302 5.6 103600 52
2012-03-09 09:01:20 51°17.002 2°52.709 8.1 256 5.6 103590 51
2012-03-09 09:01:25 51°17.007 2°52.701 7.4 303 5.6 103590 51
2012-03-09 09:01:30 51°17.013 2°52.694 7.3 255 5.6 103600 51
2012-03-09 09:01:35 51°17.018 2°52.686 7.4 308 5.6 103600 51
2012-03-09 09:01:40 51°17.023 2°52.679 9.1 258 5.6 103600 51
2012-03-09 09:01:45 51°17.028 2°52.672 7.3 305 5.6 103600 51
2012-03-09 09:01:50 51°17.033 2°52.664 7.1 257 5.6 103600 51
2012-03-09 09:01:55 51°17.037 2°52.656 6.8 309 5.6 103600 51
2012-03-09 09:02:00 51°17.043 2°52.649 6.4 261 5.6 103600 51
2012-03-09 09:02:05 51°17.049 2°52.643 6.9 304 5.6 103600 51
2012-03-09 09:02:10 51°17.054 2°52.637 8 258 5.6 103600 51
2012-03-09 09:02:15 51°17.06 2°52.63 7.2 304 5.6 103600 51
2012-03-09 09:02:20 51°17.065 2°52.623 6.4 260 5.6 103600 51
2012-03-09 09:02:25 51°17.07 2°52.616 6.7 303 5.6 103600 51
2012-03-09 09:02:30 51°17.076 2°52.61 6.9 259 5.6 103600 52
2012-03-09 09:02:35 51°17.081 2°52.603 7.6 304 5.6 103600 52
2012-03-09 09:02:40 51°17.086 2°52.597 7.2 261 5.6 103600 52
2012-03-09 09:02:45 51°17.092 2°52.59 7.4 306 5.6 103600 52
2012-03-09 09:02:50 51°17.097 2°52.584 7.4 259 5.6 103590 51
2012-03-09 09:02:55 51°17.103 2°52.578 6.4 310 5.6 103590 51
2012-03-09 09:03:00 51°17.109 2°52.572 6.1 262 5.6 103600 52
2012-03-09 09:03:05 51°17.114 2°52.566 5.3 304 5.6 103600 52
2012-03-09 09:03:10 51°17.12 2°52.561 5.3 262 5.6 103590 52
2012-03-09 09:03:15 51°17.125 2°52.555 5.8 310 5.6 103590 52
2012-03-09 09:03:20 51°17.131 2°52.549 6.8 261 5.6 103600 52
2012-03-09 09:03:25 51°17.137 2°52.543 7.6 302 5.6 103600 52
2012-03-09 09:03:30 51°17.142 2°52.537 5.8 260 5.6 103590 51
2012-03-09 09:03:36 51°17.149 2°52.53 5.7 302 5.6 103590 51
2012-03-09 09:03:40 51°17.154 2°52.525 6.3 262 5.6 103590 52
2012-03-09 09:03:45 51°17.16 2°52.519 6.7 305 5.6 103590 52
2012-03-09 09:03:50 51°17.165 2°52.513 6.3 261 5.6 103600 52
2012-03-09 09:03:55 51°17.171 2°52.507 5 305 5.6 103600 52
2012-03-09 09:04:00 51°17.177 2°52.5 7.1 260 5.6 103600 51
2012-03-09 09:04:05 51°17.183 2°52.494 7.2 305 5.6 103600 51
2012-03-09 09:04:10 51°17.189 2°52.487 8.3 259 5.6 103590 51
2012-03-09 09:04:15 51°17.194 2°52.481 8 308 5.6 103590 51
2012-03-09 09:04:20 51°17.2 2°52.476 7.7 256 5.6 103600 50
2012-03-09 09:04:25 51°17.206 2°52.469 6.8 304 5.6 103600 50
2012-03-09 09:04:30 51°17.212 2°52.463 8.2 262 5.6 103600 52
2012-03-09 09:04:35 51°17.217 2°52.456 7 310 5.6 103600 52
2012-03-09 09:04:40 51°17.223 2°52.449 7.9 259 5.6 103600 51
2012-03-09 09:04:45 51°17.229 2°52.443 7.7 304 5.6 103600 51
2012-03-09 09:04:50 51°17.235 2°52.436 7.7 261 5.6 103590 52
2012-03-09 09:04:55 51°17.241 2°52.43 8.4 307 5.6 103590 52
2012-03-09 09:05:00 51°17.246 2°52.423 6.3 260 5.6 103590 53
2012-03-09 09:05:05 51°17.252 2°52.416 8.2 303 5.6 103590 53
2012-03-09 09:05:10 51°17.258 2°52.41 7.2 261 5.6 103590 51
2012-03-09 09:05:16 51°17.265 2°52.401 6.3 309 5.6 103590 51
2012-03-09 09:05:20 51°17.269 2°52.395 6.3 262 5.6 103600 51
2012-03-09 09:05:25 51°17.275 2°52.389 6.3 302 5.6 103600 51
2012-03-09 09:05:30 51°17.28 2°52.381 6.3 260 5.6 103600 52
2012-03-09 09:05:36 51°17.287 2°52.373 6.8 304 5.6 103600 52
2012-03-09 09:05:40 51°17.292 2°52.367 6.3 261 5.6 103600 52
2012-03-09 09:05:45 51°17.297 2°52.36 6.9 306 5.6 103600 52
2012-03-09 09:05:50 51°17.303 2°52.352 6.5 258 5.6 103590 52
2012-03-09 09:05:55 51°17.308 2°52.345 8.3 307 5.6 103590 52
2012-03-09 09:06:00 51°17.314 2°52.337 8.3 255 5.6 103590 51
2012-03-09 09:06:05 51°17.319 2°52.33 8.5 303 5.6 103590 51
2012-03-09 09:06:10 51°17.325 2°52.322 7.5 255 5.6 103590 51
2012-03-09 09:06:15 51°17.33 2°52.314 7.4 307 5.6 103590 51
2012-03-09 09:06:20 51°17.335 2°52.307 7.8 259 5.6 103590 52
2012-03-09 09:06:25 51°17.341 2°52.299 6.9 311 5.6 103590 52
2012-03-09 09:06:30 51°17.346 2°52.292 6.7 254 5.6 103590 51
2012-03-09 09:06:35 51°17.352 2°52.284 7.7 308 5.6 103590 51
2012-03-09 09:06:40 51°17.357 2°52.277 7.5 258 5.6 103590 52
2012-03-09 09:06:45 51°17.363 2°52.269 6.1 304 5.6 103590 52
2012-03-09 09:06:50 51°17.368 2°52.262 6.9 260 5.6 103590 51
2012-03-09 09:06:55 51°17.373 2°52.254 7.2 303 5.6 103590 51
2012-03-09 09:07:00 51°17.379 2°52.247 7.2 257 5.6 103590 50
2012-03-09 09:07:05 51°17.385 2°52.239 7.3 308 5.6 103590 50
2012-03-09 09:07:10 51°17.39 2°52.232 6.9 257 5.6 103590 52
2012-03-09 09:07:15 51°17.396 2°52.225 6.4 302 5.6 103590 52
2012-03-09 09:07:20 51°17.402 2°52.218 6.7 260 5.6 103590 52
2012-03-09 09:07:25 51°17.408 2°52.212 7.1 308 5.6 103590 52
2012-03-09 09:07:30 51°17.413 2°52.205 5 264 5.6 103590 52
2012-03-09 09:07:36 51°17.42 2°52.197 8 311 5.6 103590 52
2012-03-09 09:07:40 51°17.425 2°52.192 5.7 261 5.6 103590 51
2012-03-09 09:07:44 51°17.43 2°52.187 6.5 302 5.6 103590 51
2012-03-09 09:07:50 51°17.437 2°52.179 5.9 259 5.6 103590 52
2012-03-09 09:07:56 51°17.444 2°52.172 4.6 308 5.6 103590 52
2012-03-09 09:08:00 51°17.449 2°52.167 4.8 263 5.6 103590 52
2012-03-09 09:08:05 51°17.455 2°52.161 6.5 311 5.6 103590 52
2012-03-09 09:08:10 51°17.461 2°52.155 4.2 263 5.6 103600 52
2012-03-09 09:08:16 51°17.468 2°52.148 5 310 5.6 103600 52
2012-03-09 09:08:20 51°17.473 2°52.143 5.6 264 5.6 103590 51
2012-03-09 09:08:25 51°17.479 2°52.137 5.6 306 5.6 103590 51
2012-03-09 09:08:30 51°17.485 2°52.131 4.8 264 5.6 103590 51
2012-03-09 09:08:35 51°17.491 2°52.124 5.6 307 5.6 103590 51
2012-03-09 09:08:40 51°17.497 2°52.118 5 264 5.6 103590 51
2012-03-09 09:08:45 51°17.502 2°52.111 4.9 306 5.6 103590 51
2012-03-09 09:08:50 51°17.508 2°52.104 6.3 261 5.6 103590 52
2012-03-09 09:08:55 51°17.514 2°52.098 5.5 303 5.6 103590 52
2012-03-09 09:09:00 51°17.52 2°52.091 5.5 262 5.6 103590 51
2012-03-09 09:09:05 51°17.525 2°52.084 6 303 5.6 103590 51
2012-03-09 09:09:10 51°17.531 2°52.077 5.8 262 5.6 103590 52
2012-03-09 09:09:15 51°17.536 2°52.07 5.8 307 5.6 103590 52
2012-03-09 09:09:20 51°17.542 2°52.063 6.7 259 5.6 103590 51
2012-03-09 09:09:25 51°17.547 2°52.056 7.5 304 5.6 103590 51
2012-03-09 09:09:30 51°17.553 2°52.048 6.6 262 5.6 103580 52
2012-03-09 09:09:36 51°17.559 2°52.039 7.1 309 5.6 103580 52
2012-03-09 09:09:40 51°17.564 2°52.033 7 257 5.6 103590 50
2012-03-09 09:09:45 51°17.569 2°52.026 6.8 308 5.6 103590 50
2012-03-09 09:09:50 51°17.575 2°52.018 7.9 259 5.6 103590 51
2012-03-09 09:09:56 51°17.581 2°52.009 8.2 310 5.6 103590 51
2012-03-09 09:10:00 51°17.586 2°52.003 8.5 257 5.6 103590 51
2012-03-09 09:10:05 51°17.591 2°51.995 7.9 304 5.6 103590 51
2012-03-09 09:10:10 51°17.597 2°51.987 8.5 260 5.7 103580 51
2012-03-09 09:10:15 51°17.602 2°51.98 7.7 307 5.7 103580 51
2012-03-09 09:10:20 51°17.607 2°51.972 7.4 255 5.7 103590 51
2012-03-09 09:10:25 51°17.613 2°51.964 7.6 307 5.7 103590 51
2012-03-09 09:10:30 51°17.618 2°51.957 7.5 257 5.7 103590 51
2012-03-09 09:10:35 51°17.623 2°51.949 8.5 304 5.7 103590 51
2012-03-09 09:10:40 51°17.629 2°51.942 8.6 258 5.7 103580 52
2012-03-09 09:10:45 51°17.634 2°51.934 8.9 305 5.7 103580 52
2012-03-09 09:10:50 51°17.64 2°51.926 7.7 257 5.7 103580 52
2012-03-09 09:10:55 51°17.645 2°51.918 6.4 309 5.7 103580 52
2012-03-09 09:11:00 51°17.651 2°51.911 7.8 256 5.7 103580 52
2012-03-09 09:11:05 51°17.656 2°51.904 7.6 306 5.7 103580 52
2012-03-09 09:11:10 51°17.661 2°51.896 7.1 260 5.7 103580 51
2012-03-09 09:11:15 51°17.667 2°51.889 7.1 308 5.7 103580 51
2012-03-09 09:11:20 51°17.672 2°51.882 6.1 263 5.7 103590 51
2012-03-09 09:11:24 51°17.677 2°51.876 6.8 284 5.7 103590 51
2012-03-09 09:11:30 51°17.684 2°51.868 7 261 5.7 103580 51
2012-03-09 09:11:35 51°17.689 2°51.861 7 305 5.7 103580 51
2012-03-09 09:11:40 51°17.695 2°51.854 7.7 261 5.7 103580 51
2012-03-09 09:11:45 51°17.701 2°51.847 7.3 304 5.7 103580 51
2012-03-09 09:11:50 51°17.706 2°51.84 5.8 262 5.7 103580 51
2012-03-09 09:11:56 51°17.713 2°51.833 5.8 309 5.7 103580 51
2012-03-09 09:12:00 51°17.718 2°51.828 6.2 260 5.7 103590 51
2012-03-09 09:12:05 51°17.724 2°51.821 6.5 305 5.7 103590 51
2012-03-09 09:12:10 51°17.729 2°51.815 6.2 262 5.7 103580 51
2012-03-09 09:12:16 51°17.736 2°51.807 6.7 305 5.7 103580 51
2012-03-09 09:12:20 51°17.741 2°51.802 6.2 260 5.7 103580 51
2012-03-09 09:12:25 51°17.746 2°51.795 5.6 305 5.7 103580 51
2012-03-09 09:12:30 51°17.752 2°51.789 6.8 260 5.7 103580 51
2012-03-09 09:12:36 51°17.759 2°51.781 8.1 305 5.7 103580 51
2012-03-09 09:12:40 51°17.764 2°51.776 7.6 258 5.7 103590 53
2012-03-09 09:12:45 51°17.769 2°51.769 7.1 308 5.7 103590 53
2012-03-09 09:12:50 51°17.775 2°51.763 7.9 260 5.7 103590 52
2012-03-09 09:12:55 51°17.781 2°51.756 8.1 305 5.7 103590 52
2012-03-09 09:13:00 51°17.787 2°51.749 9.4 259 5.7 103580 52
2012-03-09 09:13:05 51°17.792 2°51.742 6.8 308 5.7 103580 52
2012-03-09 09:13:10 51°17.798 2°51.735 7.5 261 5.7 103580 51
2012-03-09 09:13:15 51°17.803 2°51.728 7.7 309 5.7 103580 51
2012-03-09 09:13:20 51°17.809 2°51.721 8.1 257 5.7 103580 51
2012-03-09 09:13:25 51°17.815 2°51.714 6.8 308 5.7 103580 51
2012-03-09 09:13:30 51°17.82 2°51.707 7.1 262 5.7 103580 51
2012-03-09 09:13:35 51°17.826 2°51.7 9 308 5.7 103580 51
2012-03-09 09:13:40 51°17.832 2°51.693 7.1 260 5.7 103580 51
2012-03-09 09:13:45 51°17.837 2°51.686 9 304 5.7 103580 51
2012-03-09 09:13:50 51°17.843 2°51.678 7.5 259 5.7 103580 51
2012-03-09 09:13:55 51°17.848 2°51.671 7.4 307 5.7 103580 51
2012-03-09 09:14:00 51°17.854 2°51.664 8 257 5.7 103590 51
2012-03-09 09:14:05 51°17.859 2°51.657 7.8 309 5.7 103590 51
2012-03-09 09:14:10 51°17.865 2°51.65 7.7 259 5.7 103580 51
2012-03-09 09:14:16 51°17.871 2°51.64 9.8 308 5.7 103580 51
2012-03-09 09:14:20 51°17.876 2°51.634 8.9 258 5.8 103580 51
2012-03-09 09:14:25 51°17.881 2°51.626 8.2 303 5.8 103580 51
2012-03-09 09:14:30 51°17.887 2°51.618 9.3 257 5.8 103580 51
2012-03-09 09:14:36 51°17.894 2°51.61 8.6 305 5.8 103580 51